DW7364 Weather Reports


time (UTC)temp
C
wind
direction
speed
KPH
gust
KPH
rain 1hr
cm
rain 24hr
cm
rain mn
cm
humidity
%
barometer
mb
20260504194934 22 161 16.1 22.5 0.00 0.00 0.00 33 1009.3
20260504194431 22 150 6.4 25.7 0.00 0.00 0.00 30 1009.3
20260504193931 23 183 6.4 17.7 0.00 0.00 0.00 33 1009.4
20260504193431 23 173 1.6 17.7 0.00 0.00 0.00 33 1009.4
20260504192940 22 130 6.4 22.5 0.00 0.00 0.00 32 1009.4
20260504192431 23 147 1.6 12.9 0.00 0.00 0.00 33 1009.5
20260504191931 23 145 11.3 16.1 0.00 0.00 0.00 32 1009.6
20260504191434 23 195 1.6 17.7 0.00 0.00 0.00 34 1009.7
20260504190935 23 178 9.7 19.3 0.00 0.00 0.00 32 1009.8
20260504190434 23 171 20.9 24.1 0.00 0.00 0.00 33 1009.8
20260504185938 22 163 33.8 35.4 0.00 0.00 0.00 33 1009.8
20260504185437 22 134 6.4 25.7 0.00 0.00 0.00 31 1009.9
20260504184931 23 171 25.7 20.9 0.00 0.00 0.00 36 1009.9
20260504184431 23 172 6.4 20.9 0.00 0.00 0.00 31 1010.1
20260504183932 23 155 14.5 19.3 0.00 0.00 0.00 31 1010.1
20260504183431 23 159 9.7 16.1 0.00 0.00 0.00 32 1010.2
20260504182931 23 207 4.8 17.7 0.00 0.00 0.00 33 1010.3
20260504182431 23 244 9.7 16.1 0.00 0.00 0.00 32 1010.3
20260504181931 24 229 6.4 11.3 0.00 0.00 0.00 34 1010.5
20260504181431 23 230 4.8 11.3 0.00 0.00 0.00 33 1010.5
20260504180932 24 157 6.4 11.3 0.00 0.00 0.00 32 1010.6
20260504180437 24 217 6.4 12.9 0.00 0.00 0.00 33 1010.5
20260504175932 23 158 6.4 17.7 0.00 0.00 0.00 30 1010.6
20260504175431 23 125 1.6 16.1 0.00 0.00 0.00 33 1010.7
20260504174932 23 159 0.0 17.7 0.00 0.00 0.00 33 1010.8
20260504174431 23 176 11.3 19.3 0.00 0.00 0.00 31 1010.8
20260504173931 23 258 16.1 17.7 0.00 0.00 0.00 33 1010.8
20260504173435 23 290 1.6 8.0 0.00 0.00 0.00 35 1011.0
20260504172931 23 65 4.8 17.7 0.00 0.00 0.00 33 1011.1
20260504172434 23 151 6.4 12.9 0.00 0.00 0.00 34 1011.1
20260504171937 23 218 4.8 11.3 0.00 0.00 0.00 35 1011.1
20260504171431 22 355 4.8 19.3 0.00 0.00 0.00 35 1011.3
20260504170938 23 155 14.5 16.1 0.00 0.00 0.00 35 1011.3
20260504170434 23 146 1.6 11.3 0.00 0.00 0.00 33 1011.4
20260504160434 22 154 14.5 14.5 0.00 0.00 0.00 36 1012.2
20260504150931 20 142 1.6 19.3 0.00 0.00 0.00 42 1012.7
20260504150432 20 198 1.6 12.9 0.00 0.00 0.00 43 1012.7
20260504140937 18 253 4.8 20.9 0.00 0.00 0.00 49 1012.9
20260504140431 18 214 1.6 11.3 0.00 0.00 0.00 49 1013.0
20260504130437 16 150 25.7 17.7 0.00 0.00 0.00 56 1013.4
20260504110431 10 192 0.0 4.8 0.00 0.00 0.00 74 1014.0
20260504100434 7 171 1.6 3.2 0.00 0.00 0.00 75 1013.9
20260504081937 8 198 0.0 3.2 0.00 0.00 0.00 60 1013.8
20260504081431 8 217 0.0 0.0 0.00 0.00 0.00 59 1013.8
20260504080934 8 219 0.0 3.2 0.00 0.00 0.00 58 1013.8
20260504080437 8 209 1.6 3.2 0.00 0.00 0.00 57 1013.8
20260504050431 10 183 0.0 0.0 0.00 0.00 0.00 54 1013.5
20260504045938 9 183 0.0 0.0 0.00 0.00 0.00 54 1013.5
20260504045437 9 183 0.0 3.2 0.00 0.00 0.00 55 1013.6
20260504044931 9 183 0.0 1.6 0.00 0.00 0.00 54 1013.6
20260504044436 10 183 1.6 3.2 0.00 0.00 0.00 54 1013.5
20260504043937 10 196 1.6 1.6 0.00 0.00 0.00 52 1013.4
20260504043435 10 196 0.0 3.2 0.00 0.00 0.00 50 1013.3
20260504042931 10 197 1.6 1.6 0.00 0.00 0.00 51 1013.2
20260504042432 10 196 0.0 1.6 0.00 0.00 0.00 49 1013.2
20260504041935 10 196 0.0 3.2 0.00 0.00 0.00 49 1013.2
20260504041437 10 196 0.0 3.2 0.00 0.00 0.00 49 1013.2
20260504040931 10 210 1.6 4.8 0.00 0.00 0.00 50 1013.1
20260504040437 10 234 1.6 1.6 0.00 0.00 0.00 49 1013.0
20260504035937 10 232 0.0 3.2 0.00 0.00 0.00 49 1013.0
20260504035431 11 226 1.6 3.2 0.00 0.00 0.00 48 1012.9
20260504034934 11 213 0.0 3.2 0.00 0.00 0.00 48 1013.0
20260504034431 11 238 0.0 3.2 0.00 0.00 0.00 47 1012.9
20260504033931 11 157 0.0 3.2 0.00 0.00 0.00 47 1013.0
20260504033431 11 192 1.6 4.8 0.00 0.00 0.00 46 1012.9
20260504032934 11 213 0.0 3.2 0.00 0.00 0.00 46 1012.9
20260504032440 11 229 0.0 3.2 0.00 0.00 0.00 46 1012.9
20260504031934 11 189 0.0 4.8 0.00 0.00 0.00 46 1012.8
20260504031438 11 211 0.0 4.8 0.00 0.00 0.00 46 1012.8
20260504030934 11 261 6.4 6.4 0.00 0.00 0.00 46 1012.8
20260504030431 11 194 4.8 4.8 0.00 0.00 0.00 47 1012.8
20260504025931 11 232 4.8 3.2 0.00 0.00 0.00 47 1012.8
20260504025434 11 198 1.6 3.2 0.00 0.00 0.00 46 1012.8
20260504024931 11 242 0.0 3.2 0.00 0.00 0.00 46 1012.9
20260504024434 11 219 0.0 3.2 0.00 0.00 0.00 46 1012.8
20260504023931 11 198 1.6 4.8 0.00 0.00 0.00 45 1012.8
20260504023434 11 172 4.8 3.2 0.00 0.00 0.00 46 1012.9
20260504022931 11 218 1.6 3.2 0.00 0.00 0.00 45 1012.8
20260504022431 11 190 1.6 3.2 0.00 0.00 0.00 45 1012.8
20260504021932 11 189 0.0 8.0 0.00 0.00 0.00 46 1012.8
20260504021435 11 174 0.0 3.2 0.00 0.00 0.00 46 1012.8
20260504020931 11 174 1.6 3.2 0.00 0.00 0.00 46 1012.7
20260504020431 11 185 0.0 0.0 0.00 0.00 0.00 46 1012.8
20260504015931 11 185 0.0 1.6 0.00 0.00 0.00 46 1012.8
20260504015434 11 184 1.6 3.2 0.00 0.00 0.00 46 1012.7
20260504014940 11 184 1.6 3.2 0.00 0.00 0.00 46 1012.7
20260504014431 11 186 1.6 4.8 0.00 0.00 0.00 46 1012.6
20260504013934 11 209 0.0 0.0 0.00 0.00 0.00 46 1012.6
20260504013437 11 209 0.0 0.0 0.00 0.00 0.00 46 1012.5
20260504012931 11 217 0.0 0.0 0.00 0.00 0.00 47 1012.5
20260504012434 11 217 0.0 0.0 0.00 0.00 0.00 48 1012.5
20260504011932 11 217 0.0 0.0 0.00 0.00 0.00 50 1012.4
20260504011431 11 217 0.0 0.0 0.00 0.00 0.00 50 1012.3
20260504010934 11 217 0.0 0.0 0.00 0.00 0.00 48 1012.2
20260504010431 11 217 0.0 0.0 0.00 0.00 0.00 47 1012.2
20260504005934 12 222 0.0 0.0 0.00 0.00 0.00 46 1012.0
20260504005435 12 222 0.0 1.6 0.00 0.00 0.00 44 1012.0
20260504004937 12 222 1.6 1.6 0.00 0.00 0.00 42 1011.9
20260504004431 12 222 1.6 3.2 0.00 0.00 0.00 41 1011.9
20260504003940 13 232 0.0 3.2 0.00 0.00 0.00 41 1011.8
20260504003437 13 233 1.6 3.2 0.00 0.00 0.00 39 1011.7
20260504002934 13 225 0.0 1.6 0.00 0.00 0.00 39 1011.7
20260504002434 13 225 0.0 4.8 0.00 0.00 0.00 38 1011.6
20260504001934 13 192 0.0 3.2 0.00 0.00 0.00 38 1011.6
20260504001431 13 242 1.6 4.8 0.00 0.00 0.00 37 1011.6
20260504000931 13 259 1.6 6.4 0.00 0.00 0.00 37 1011.5
20260504000431 14 202 6.4 6.4 0.00 0.00 0.00 37 1011.5
20260503235931 14 175 1.6 8.0 0.00 0.00 0.00 36 1011.5
20260503235434 14 268 1.6 11.3 0.00 0.00 0.00 35 1011.5
20260503234931 15 215 0.0 12.9 0.00 0.00 0.00 35 1011.4
20260503234434 15 256 0.0 6.4 0.00 0.00 0.00 35 1011.3
20260503233934 15 247 0.0 4.8 0.00 0.00 0.00 34 1011.3
20260503233434 15 277 1.6 6.4 0.00 0.00 0.00 34 1011.1
20260503232932 15 210 4.8 9.7 0.00 0.00 0.00 34 1011.2
20260503232431 15 192 1.6 14.5 0.00 0.00 0.00 32 1011.2
20260503231931 15 254 6.4 12.9 0.00 0.00 0.00 32 1011.2
20260503231437 15 144 4.8 14.5 0.00 0.00 0.00 32 1011.1
20260503230932 15 241 0.0 11.3 0.00 0.00 0.00 32 1011.1
20260503230435 16 296 16.1 17.7 0.00 0.00 0.00 31 1011.0
20260503225934 16 277 16.1 24.1 0.00 0.00 0.00 31 1011.1
20260503225431 16 267 16.1 11.3 0.00 0.00 0.00 31 1011.0
20260503224937 16 273 6.4 12.9 0.00 0.00 0.00 31 1011.0
20260503224431 16 290 16.1 12.9 0.00 0.00 0.00 32 1011.0
20260503223934 16 227 4.8 11.3 0.00 0.00 0.00 31 1010.9
20260503223434 16 196 11.3 17.7 0.00 0.00 0.00 31 1010.9
20260503222931 16 324 24.1 16.1 0.00 0.00 0.00 31 1010.9
20260503222431 16 254 1.6 9.7 0.00 0.00 0.00 31 1010.9
20260503221940 16 240 6.4 14.5 0.00 0.00 0.00 30 1010.9
20260503221437 16 288 11.3 12.9 0.00 0.00 0.00 30 1010.9
20260503220931 16 344 11.3 25.7 0.00 0.00 0.00 29 1010.9
20260503220431 16 324 14.5 12.9 0.00 0.00 0.00 29 1010.9
20260503215934 16 301 9.7 17.7 0.00 0.00 0.00 29 1011.0
20260503215431 16 302 6.4 12.9 0.00 0.00 0.00 31 1011.0
20260503214931 16 321 19.3 27.4 0.00 0.00 0.00 30 1011.0
20260503214437 16 279 6.4 24.1 0.00 0.00 0.00 30 1011.1
20260503213931 16 299 33.8 22.5 0.00 0.00 0.00 31 1011.0
20260503213434 16 272 1.6 22.5 0.00 0.00 0.00 31 1010.9
20260503212937 16 259 4.8 19.3 0.00 0.00 0.00 31 1010.8
20260503212434 16 262 6.4 17.7 0.00 0.00 0.00 32 1010.9
20260503211932 16 319 9.7 16.1 0.00 0.00 0.00 31 1010.8
20260503211434 16 232 19.3 17.7 0.00 0.00 0.00 31 1010.8
20260503210934 16 248 11.3 14.5 0.00 0.00 0.00 32 1011.0
20260503210434 16 228 9.7 24.1 0.00 0.00 0.00 32 1011.0
20260503205931 16 308 11.3 19.3 0.00 0.00 0.00 29 1011.0
20260503205434 16 323 6.4 22.5 0.00 0.00 0.00 33 1011.0
20260503204931 16 306 25.7 24.1 0.00 0.00 0.00 31 1011.2
20260503204431 16 252 4.8 12.9 0.00 0.00 0.00 32 1011.2
20260503203938 16 219 4.8 22.5 0.00 0.00 0.00 32 1011.1
20260503203431 15 319 9.7 29.0 0.00 0.00 0.00 31 1011.2
20260503202934 15 257 6.4 19.3 0.00 0.00 0.00 32 1011.1
20260503202431 15 301 16.1 29.0 0.00 0.00 0.00 30 1011.1
20260503201931 16 311 14.5 24.1 0.00 0.00 0.00 32 1011.1
20260503201431 15 303 6.4 22.5 0.00 0.00 0.00 30 1011.1
20260503200931 15 262 6.4 27.4 0.00 0.00 0.00 31 1011.0
20260503200434 15 186 9.7 16.1 0.00 0.00 0.00 32 1011.2
20260503195934 15 47 4.8 22.5 0.00 0.00 0.00 32 1011.4
20260503195437 15 254 9.7 25.7 0.00 0.00 0.00 33 1011.4